When you browse on this site, cookies collect data to enhance your experience and personalize the content and advertising you see.
Visit our Privacy Policy to learn more. By continuing to use the site, you agree to this use of cookies and data.
  • en France
  • Liste des pays
  • À 7 jours
  • Température de l'eau
  • Carte satellitaire
  • Carte météo
  • Widgets météo
  • user-avatar
    Se connecter

    Météo par heure à Graz

    Ce jour, 27 Juin, Jeudi

    Heure Température Précipitation Vent Pression Humidité
    00:00 +24°C° 0 mm 1 m/s 729 mmHg 77%
    01:00 +24°C° 0 mm 1 m/s 729 mmHg 79%
    02:00 +24°C° 0 mm 1 m/s 729 mmHg 78%
    03:00 +24°C° 0 mm 2 m/s 729 mmHg 77%
    04:00 +23°C° 0 mm 2 m/s 728 mmHg 76%
    05:00 +25°C° 0 mm 2 m/s 728 mmHg 72%
    06:00 +27°C° 0 mm 1 m/s 728 mmHg 68%
    07:00 +28°C° 0 mm 1 m/s 728 mmHg 64%
    08:00 +31°C° 0 mm 1 m/s 729 mmHg 57%
    09:00 +34°C° 0 mm 1 m/s 729 mmHg 49%
    10:00 +34°C° 0 mm 0 m/s 729 mmHg 41%
    11:00 +37°C° 0 mm 1 m/s 729 mmHg 38%
    12:00 +37°C° 0 mm 1 m/s 728 mmHg 36%
    13:00 +39°C° 0 mm 2 m/s 728 mmHg 33%
    14:00 +36°C° 0.4 mm 2 m/s 728 mmHg 43%
    15:00 +34°C° 0.4 mm 2 m/s 727 mmHg 54%
    16:00 +31°C° 0.4 mm 2 m/s 726 mmHg 64%
    17:00 +30°C° 1.1 mm 2 m/s 726 mmHg 71%
    18:00 +28°C° 1.1 mm 2 m/s 727 mmHg 77%
    19:00 +27°C° 1.1 mm 2 m/s 727 mmHg 84%
    20:00 +25°C° 0.8 mm 1 m/s 727 mmHg 86%
    21:00 +24°C° 0.8 mm 1 m/s 728 mmHg 88%
    22:00 +23°C° 0.8 mm 1 m/s 728 mmHg 91%
    23:00 +22°C° 0.1 mm 1 m/s 728 mmHg 91%

    Demain, 28 Juin, Vendredi

    Heure Température Précipitation Vent Pression Humidité
    00:00 +22°C° 0.1 mm 1 m/s 728 mmHg 91%
    01:00 +21°C° 0.1 mm 1 m/s 728 mmHg 92%
    02:00 +21°C° 0 mm 1 m/s 728 mmHg 91%
    03:00 +20°C° 0 mm 1 m/s 728 mmHg 91%
    04:00 +20°C° 0 mm 1 m/s 728 mmHg 91%
    05:00 +20°C° 0 mm 1 m/s 728 mmHg 88%
    06:00 +21°C° 0 mm 1 m/s 728 mmHg 85%
    07:00 +21°C° 0 mm 1 m/s 728 mmHg 82%
    08:00 +23°C° 0 mm 1 m/s 728 mmHg 73%
    09:00 +25°C° 0 mm 1 m/s 728 mmHg 64%
    10:00 +26°C° 0 mm 1 m/s 728 mmHg 55%
    11:00 +27°C° 0 mm 1 m/s 728 mmHg 51%
    12:00 +28°C° 0 mm 2 m/s 728 mmHg 47%
    13:00 +29°C° 0 mm 2 m/s 728 mmHg 44%
    14:00 +29°C° 0 mm 2 m/s 728 mmHg 44%
    15:00 +29°C° 0 mm 2 m/s 727 mmHg 45%
    16:00 +29°C° 0 mm 3 m/s 727 mmHg 45%
    17:00 +27°C° 0 mm 2 m/s 727 mmHg 54%
    18:00 +25°C° 0 mm 2 m/s 728 mmHg 64%
    19:00 +23°C° 0 mm 2 m/s 728 mmHg 73%
    20:00 +22°C° 0 mm 1 m/s 728 mmHg 76%
    21:00 +20°C° 0 mm 1 m/s 728 mmHg 79%
    22:00 +19°C° 0 mm 1 m/s 728 mmHg 82%
    23:00 +16°C° 0 mm 0 m/s 728 mmHg 83%

    Après-demain, 29 Juin, Samedi

    Heure Température Précipitation Vent Pression Humidité
    00:00 +16°C° 0 mm 0 m/s 728 mmHg 83%
    01:00 +15°C° 0 mm 0 m/s 728 mmHg 83%
    02:00 +15°C° 0 mm 0 m/s 728 mmHg 84%
    03:00 +16°C° 0 mm 1 m/s 728 mmHg 84%
    04:00 +15°C° 0 mm 1 m/s 728 mmHg 85%
    05:00 +16°C° 0 mm 0 m/s 728 mmHg 79%
    06:00 +18°C° 0 mm 0 m/s 728 mmHg 74%
    07:00 +20°C° 0 mm 0 m/s 728 mmHg 69%
    08:00 +23°C° 0 mm 1 m/s 728 mmHg 63%
    09:00 +24°C° 0 mm 1 m/s 728 mmHg 58%
    10:00 +26°C° 0 mm 1 m/s 728 mmHg 53%
    11:00 +27°C° 0 mm 1 m/s 728 mmHg 49%
    12:00 +28°C° 0 mm 2 m/s 728 mmHg 45%
    13:00 +29°C° 0 mm 2 m/s 728 mmHg 41%
    14:00 +29°C° 0 mm 2 m/s 728 mmHg 41%
    15:00 +28°C° 0 mm 2 m/s 728 mmHg 42%
    16:00 +28°C° 0 mm 2 m/s 727 mmHg 43%
    17:00 +26°C° 0 mm 2 m/s 727 mmHg 51%
    18:00 +25°C° 0 mm 1 m/s 727 mmHg 60%
    19:00 +23°C° 0 mm 1 m/s 727 mmHg 69%
    20:00 +22°C° 0 mm 1 m/s 727 mmHg 72%
    21:00 +20°C° 0 mm 1 m/s 727 mmHg 75%
    22:00 +17°C° 0 mm 0 m/s 727 mmHg 78%
    23:00 +17°C° 0 mm 0 m/s 727 mmHg 79%

    30 Juin, Dimanche

    Heure Température Précipitation Vent Pression Humidité
    00:00 +16°C° 0 mm 0 m/s 727 mmHg 79%
    01:00 +18°C° 0 mm 1 m/s 727 mmHg 80%
    02:00 +18°C° 0 mm 1 m/s 727 mmHg 81%
    03:00 +16°C° 0 mm 1 m/s 727 mmHg 82%
    04:00 +16°C° 0 mm 1 m/s 727 mmHg 83%
    05:00 +17°C° 0 mm 0 m/s 727 mmHg 77%
    06:00 +19°C° 0 mm 0 m/s 727 mmHg 71%
    07:00 +21°C° 0 mm 0 m/s 727 mmHg 65%
    08:00 +25°C° 0 mm 1 m/s 728 mmHg 59%
    09:00 +27°C° 0 mm 1 m/s 728 mmHg 54%
    10:00 +29°C° 0 mm 1 m/s 728 mmHg 48%
    11:00 +30°C° 0 mm 1 m/s 728 mmHg 46%
    12:00 +31°C° 0 mm 2 m/s 727 mmHg 43%
    13:00 +32°C° 0 mm 2 m/s 727 mmHg 41%
    14:00 +31°C° 0 mm 2 m/s 727 mmHg 42%
    15:00 +31°C° 0 mm 2 m/s 727 mmHg 43%
    16:00 +31°C° 0 mm 2 m/s 727 mmHg 45%
    17:00 +29°C° 0 mm 2 m/s 726 mmHg 53%
    18:00 +28°C° 0 mm 1 m/s 726 mmHg 62%
    19:00 +26°C° 0 mm 1 m/s 726 mmHg 71%
    20:00 +25°C° 0 mm 1 m/s 726 mmHg 74%
    21:00 +23°C° 0 mm 1 m/s 727 mmHg 77%
    22:00 +22°C° 0 mm 1 m/s 727 mmHg 80%
    23:00 +22°C° 0 mm 1 m/s 727 mmHg 80%

    1 Juillet, Lundi

    Heure Température Précipitation Vent Pression Humidité
    00:00 +21°C° 0 mm 1 m/s 727 mmHg 79%
    01:00 +21°C° 0 mm 1 m/s 727 mmHg 79%
    02:00 +21°C° 0 mm 1 m/s 726 mmHg 79%
    03:00 +21°C° 0 mm 1 m/s 726 mmHg 80%
    04:00 +21°C° 0 mm 1 m/s 726 mmHg 80%
    05:00 +22°C° 0 mm 1 m/s 726 mmHg 76%
    06:00 +22°C° 0 mm 0 m/s 726 mmHg 71%
    07:00 +24°C° 0 mm 0 m/s 726 mmHg 67%
    08:00 +26°C° 0 mm 0 m/s 726 mmHg 61%
    09:00 +30°C° 0 mm 1 m/s 726 mmHg 54%
    10:00 +32°C° 0 mm 1 m/s 726 mmHg 48%
    11:00 +33°C° 0 mm 1 m/s 726 mmHg 45%
    12:00 +35°C° 0 mm 2 m/s 726 mmHg 43%
    13:00 +36°C° 0 mm 2 m/s 726 mmHg 40%
    14:00 +36°C° 0 mm 2 m/s 725 mmHg 42%
    15:00 +35°C° 0 mm 2 m/s 725 mmHg 44%
    16:00 +35°C° 0 mm 2 m/s 725 mmHg 45%
    17:00 +31°C° 0.3 mm 2 m/s 725 mmHg 57%
    18:00 +29°C° 0.3 mm 2 m/s 725 mmHg 68%
    19:00 +26°C° 0.3 mm 2 m/s 725 mmHg 79%
    20:00 +25°C° 0 mm 2 m/s 725 mmHg 80%
    21:00 +23°C° 0 mm 2 m/s 725 mmHg 80%
    22:00 +21°C° 0 mm 2 m/s 725 mmHg 80%
    23:00 +21°C° 0 mm 2 m/s 725 mmHg 80%

    2 Juillet, Mardi

    Heure Température Précipitation Vent Pression Humidité
    00:00 +20°C° 0 mm 2 m/s 725 mmHg 80%
    01:00 +20°C° 0 mm 2 m/s 725 mmHg 79%
    02:00 +20°C° 0 mm 2 m/s 725 mmHg 80%
    03:00 +21°C° 0 mm 1 m/s 725 mmHg 81%
    04:00 +21°C° 0 mm 1 m/s 725 mmHg 82%
    05:00 +22°C° 0.3 mm 1 m/s 725 mmHg 81%
    06:00 +21°C° 0.3 mm 0 m/s 725 mmHg 80%
    07:00 +22°C° 0.3 mm 0 m/s 725 mmHg 79%
    08:00 +24°C° 0.1 mm 0 m/s 725 mmHg 73%
    09:00 +27°C° 0.1 mm 1 m/s 726 mmHg 67%
    10:00 +29°C° 0.1 mm 1 m/s 726 mmHg 61%
    11:00 +29°C° 1.3 mm 1 m/s 725 mmHg 64%
    12:00 +28°C° 1.3 mm 1 m/s 725 mmHg 68%
    13:00 +28°C° 1.3 mm 1 m/s 725 mmHg 72%
    14:00 +27°C° 3.2 mm 1 m/s 725 mmHg 78%
    15:00 +25°C° 3.2 mm 1 m/s 725 mmHg 83%
    16:00 +24°C° 3.2 mm 2 m/s 724 mmHg 89%
    17:00 +23°C° 1.3 mm 1 m/s 725 mmHg 89%
    18:00 +23°C° 1.3 mm 1 m/s 725 mmHg 89%
    19:00 +21°C° 1.3 mm 0 m/s 725 mmHg 89%
    20:00 +20°C° 0.5 mm 0 m/s 725 mmHg 89%
    21:00 +19°C° 0.5 mm 0 m/s 726 mmHg 90%
    22:00 +21°C° 0.5 mm 1 m/s 726 mmHg 90%
    23:00 +18°C° 0 mm 0 m/s 726 mmHg 91%
    Voir plus